sat.trackr.live / text

‹ back to catalog

KUIPER-00056

NORAD 64516 · 2025-134S

PAYLOAD ACTIVE UNKNOWN

§ Identity

Operator
Country
US
Launch date
2025-06-23
Launch site
AFETR
Launch vehicle
Mass (kg)
RCS (m²)

External: N2YO · Heavens-Above · Gunter

§ Orbital elements

Epoch: 2026-09-21T18:45:20.658240Z

Period
97.30 min
Inclination
51.9023°
Eccentricity
0.0000884
Mean motion
14.79936428 rev/d
Perigee alt
628.9 km
Apogee alt
630.1 km
Semi-major
7,007.7 km
B*
2.7765e-4
RAAN
76.0370°
Arg perigee
123.7672°
Mean anomaly
236.3375°
Rev number
6,925

§ Raw data

KUIPER-000561 64516U 25134S   26264.78148910  .00001896  00000+0  27765-3 0  99982 64516  51.9023  76.0370 0000884 123.7672 236.3375 14.79936428 69259

JSON: /api/v1/satellites/64516 · /tle

For live sub-satellite position, see the globe view (requires WebGL).

§ Visibility from observer

Set your observer location to see the next 7 days of passes ≥ 10°. The values pass through the URL so the page stays shareable.

No JS? Fill the form by hand. The geolocation button needs JavaScript.